Regional Weather Roundup
Issued by NWS Sioux Falls, SD

Home | Current Version | Previous Version | Graphics & Text | Print | Product List | Glossary On
Versions: 1 2 3 4 5 6 7 8 9 10 11 12 13 14 15 16 17 18 19 20 21 22 23 24 25 26 27 28 29 30 31 32 33 34 35 36 37 38 39 40 41 42 43 44 45 46 47 48 49 50
856
ASUS43 KFSD 202310
RWRFSD

WEATHER ROUNDUP FOR SE SOUTH DAKOTA/SW MINNESOTA/NW IOWA
NATIONAL WEATHER SERVICE SIOUX FALLS SD
500 PM CST MON FEB 20 2017

NOTE: "FAIR" INDICATES FEW OR NO CLOUDS BELOW 12,000 FEET WITH NO
SIGNIFICANT WEATHER AND OR OBSTRUCTIONS TO VISIBILITY.


SDZ038>040-050-052>070-210000-
SOUTHEAST SOUTH DAKOTA

CITY           SKY/WX    TMP DP  RH WIND       PRES   REMARKS
BROOKINGS      CLEAR     50  42  74 NW18      29.72R
CHAMBERLAIN    SUNNY     60  34  37 NW14      29.81R
HURON          SUNNY     55  43  63 NW16      29.76R
MADISON        FAIR      48  48 100 NW17G25   29.75R
MITCHELL       SUNNY     57  42  57 NW10      29.79R
SIOUX FALLS    MOSUNNY   53  45  74 NW14      29.75R
WINNER         FAIR      62  27  26 NW17      29.84R
YANKTON        SUNNY     55  43  62 NW16      29.79R
$$

MNZ071-072-080-081-089-090-097-098-210000-
SOUTHWEST MINNESOTA

CITY           SKY/WX    TMP DP  RH WIND       PRES   REMARKS
FAIRMONT       CLOUDY    55  53  93 S12       29.68F FOG
JACKSON        MOCLDY    50  45  81 SW13      29.69R
LUVERNE        MOCLDY    50  43  76 NW20G26   29.73S
MARSHALL       MOCLDY    49  45  86 W20G26    29.66R
MONTEVIDEO     CLOUDY    46  46 100 N14G25    29.68R FOG
PIPESTONE      CLOUDY    52  41  66 NW21      29.71S
REDWOOD FALLS  MOCLDY    54  51  90 SW9       29.62F FOG
TRACY          CLOUDY    51  48  90 W13G20    29.67R
WINDOM         MOCLDY    52  48  87 SW20      29.68R
WORTHINGTON    CLOUDY    50  46  87 W20G25    29.72R
$$

IAZ001>003-012>014-020>022-031-032-NEZ013-014-SDZ071-210000-
NORTHWEST IOWA

CITY           SKY/WX    TMP DP  RH WIND       PRES   REMARKS
CHEROKEE       CLOUDY    49  47  90 W14G20    29.78R
DENISON        CLOUDY    55  50  82 NW10G20   29.77R
ESTHERVILLE    MOCLDY    52  49  89 SW17      29.70R
LE MARS        CLOUDY    55  46  71 NW9G15    29.79R
SHELDON        MOCLDY    52  52 100 W15       29.73R
SIOUX CITY     CLOUDY    58  45  62 NW14      29.79R
SPENCER        MOCLDY    50  48  93 SW16      29.73R
STORM LAKE     CLOUDY    50  46  87 W10       29.76R
$$

ABBREVIATIONS USED IN REMARKS
   TC - TEMPERATURE IN CELSIUS
  WCI - WIND CHILL INDEX
   HX - HEAT INDEX
  VSB - VISIBILITY





USA.gov is the U.S. government's official web portal to all federal, state and local government web resources and services.